EW8559 Wallingford CT US current weather conditions

sailwx.info

Wind from 187

Air temperature 20.0° C
Dewpoint 19.3° C

Last reported at 2020-Aug-10 07:00 UTC.
Time now 2020-Aug-10 08:08 UTC

Location: N 41°26' W 072°47'.
View on Google Maps.

See reports from other nearby stations

  
Tides and Currents Weather Stations Pressure Air Temp Water Temp Dewpoint Dewpoint Depression Visibility Wind Speed Wind Dir Waves Ship Positions
date/time (UTC)wind fromknots sea level pressurealtimeterstation pressurevisibilityair tempwater tempwave heightnotes
2020-Aug-10 07:00 187 20.0
2020-Aug-10 06:45 187 20.0
2020-Aug-10 06:30 187 20.0
2020-Aug-10 06:15 187 20.0
2020-Aug-10 06:00 187 20.6
2020-Aug-10 05:45 187 20.6
2020-Aug-10 05:30 187 20.6
2020-Aug-10 05:15 187 21.1
2020-Aug-10 05:00 187 21.1
2020-Aug-10 04:45 058 21.1
2020-Aug-10 04:30 058 21.7
2020-Aug-10 04:15 058 21.7
2020-Aug-10 04:01 289 22.2
2020-Aug-10 03:46 289 22.2
2020-Aug-10 03:33 260 22.8
2020-Aug-10 03:17 177 22.8
2020-Aug-10 03:01 169 22.2
2020-Aug-10 02:47 210 22.8
2020-Aug-10 02:32 263 22.8
2020-Aug-10 02:16 254 23.3
2020-Aug-10 02:02 173 0 gusting 2 23.3
2020-Aug-10 01:46 021 23.9
2020-Aug-10 01:32 008 23.9
2020-Aug-10 01:16 347 23.9
2020-Aug-10 01:01 278 0 gusting 3 24.4
2020-Aug-10 00:46 193 24.4
2020-Aug-10 00:31 250 0 gusting 3 25.0
2020-Aug-10 00:17 232 0 gusting 3 25.0
2020-Aug-10 00:01 224 0 gusting 3 25.6
2020-Aug-09 23:47 151 0 gusting 4 26.1
2020-Aug-09 23:31 235 0 gusting 3 26.7
2020-Aug-09 23:16 227 0 gusting 6 27.2
2020-Aug-09 23:00 156 1 gusting 6 28.3
2020-Aug-09 22:46 248 1 gusting 6 28.9
2020-Aug-09 22:31 187 0 gusting 6 29.4
2020-Aug-09 22:16 322 0 gusting 6 29.4
2020-Aug-09 22:01 089 1 gusting 6 29.4
2020-Aug-09 21:46 196 1 gusting 7 30.0
2020-Aug-09 21:32 120 0 gusting 6 30.6
2020-Aug-09 21:17 041 0 gusting 7 30.6
2020-Aug-09 21:00 268 1 gusting 7 30.6
2020-Aug-09 20:46 247 1 gusting 7 30.6
2020-Aug-09 20:32 124 1 gusting 8 30.6
2020-Aug-09 20:17 151 3 gusting 7 31.1
2020-Aug-09 20:02 237 2 gusting 11 30.6
2020-Aug-09 19:31 295 2 gusting 8 31.1
2020-Aug-09 19:16 145 3 gusting 8 31.1
2020-Aug-09 19:00 172 3 gusting 11 31.1
2020-Aug-09 18:45 120 4 gusting 7 31.7
2020-Aug-09 18:31 137 3 gusting 12 31.7
2020-Aug-09 18:16 130 2 gusting 10 31.7
2020-Aug-09 18:00 336 2 gusting 8 31.1
2020-Aug-09 17:45 120 4 gusting 9 31.1
2020-Aug-09 17:30 330 2 gusting 7 31.1
2020-Aug-09 17:15 081 1 gusting 6 30.6
2020-Aug-09 17:00 219 4 gusting 7 30.6
2020-Aug-09 16:45 232 2 gusting 5 30.6
2020-Aug-09 16:30 307 2 gusting 7 30.0
2020-Aug-09 16:15 112 1 gusting 7 30.0
2020-Aug-09 16:00 293 1 gusting 8 30.0
2020-Aug-09 15:46 343 1 gusting 5 29.4
2020-Aug-09 15:31 287 1 gusting 6 28.9
2020-Aug-09 15:16 195 1 gusting 5 28.9
2020-Aug-09 15:01 175 1 gusting 6 28.9
2020-Aug-09 14:46 223 2 gusting 7 28.3
2020-Aug-09 14:31 312 0 gusting 6 27.8
2020-Aug-09 14:16 121 0 gusting 6 27.2
2020-Aug-09 14:01 325 1 gusting 5 27.2
2020-Aug-09 13:46 329 1 gusting 5 26.1
2020-Aug-09 13:31 302 1 gusting 5 25.0
2020-Aug-09 13:15 155 2 gusting 7 24.4
2020-Aug-09 13:00 293 0 gusting 5 23.9
2020-Aug-09 12:45 299 23.3
2020-Aug-09 12:30 301 22.8
2020-Aug-09 12:16 138 21.7
2020-Aug-09 12:00 303 0 gusting 1 21.1
2020-Aug-09 11:45 301 20.6
2020-Aug-09 11:30 284 20.0
2020-Aug-09 11:16 284 19.4
2020-Aug-09 11:01 284 18.9
2020-Aug-09 10:46 284 18.9
2020-Aug-09 10:31 284 18.9
2020-Aug-09 10:16 284 18.9
2020-Aug-09 10:01 284 18.3
2020-Aug-09 09:47 284 18.9
2020-Aug-09 09:31 284 18.3
2020-Aug-09 09:17 284 18.3
2020-Aug-09 09:00 284 18.3
2020-Aug-09 08:46 284 18.3
2020-Aug-09 08:31 284 18.3
2020-Aug-09 08:16 284 18.3
2020-Aug-09 08:01 284 18.3
2020-Aug-09 07:46 284 18.3
2020-Aug-09 07:30 284 18.3
2020-Aug-09 07:15 284 18.3
2020-Aug-09 07:00 284 18.3
2020-Aug-09 06:46 284 18.3
2020-Aug-09 06:30 284 18.3
2020-Aug-09 06:15 284 18.3
2020-Aug-09 06:01 284 18.3
2020-Aug-09 05:46 284 18.9
2020-Aug-09 05:31 284 18.9
2020-Aug-09 05:15 284 18.9
2020-Aug-09 05:01 284 18.9
2020-Aug-09 04:47 284 19.4
2020-Aug-09 04:31 284 19.4
2020-Aug-09 04:16 284 19.4
2020-Aug-09 04:00 284 20.0
2020-Aug-09 03:46 284 20.0
2020-Aug-09 03:31 284 20.0
2020-Aug-09 03:15 284 20.0
2020-Aug-09 03:00 284 20.0
2020-Aug-09 02:45 284 20.6
2020-Aug-09 02:30 284 20.6
2020-Aug-09 02:15 323 20.6
2020-Aug-09 02:00 323 21.1
2020-Aug-09 01:45 323 21.1
2020-Aug-09 01:30 323 21.7
2020-Aug-09 01:15 323 21.7
2020-Aug-09 01:00 323 22.2
2020-Aug-09 00:45 324 22.8
2020-Aug-09 00:30 323 23.3
2020-Aug-09 00:15 323 23.9
2020-Aug-09 00:00 129 24.4
2020-Aug-08 23:45 226 0 gusting 3 24.4
2020-Aug-08 23:30 311 25.0
2020-Aug-08 23:15 248 26.1
2020-Aug-08 23:00 142 26.7
2020-Aug-08 22:45 075 0 gusting 4 27.2
2020-Aug-08 22:30 170 1 gusting 6 27.2
2020-Aug-08 22:15 145 1 gusting 6 27.8
2020-Aug-08 22:00 112 1 gusting 6 28.3
2020-Aug-08 21:45 334 1 gusting 7 28.3
2020-Aug-08 21:30 116 1 gusting 6 28.9
2020-Aug-08 21:15 330 1 gusting 6 28.9
2020-Aug-08 21:00 127 0 gusting 6 28.9
2020-Aug-08 20:45 077 2 gusting 10 29.4
2020-Aug-08 20:30 230 1 gusting 6 29.4
2020-Aug-08 20:15 013 0 gusting 7 29.4
2020-Aug-08 20:02 170 3 gusting 7 29.4
2020-Aug-08 19:46 348 0 gusting 7 30.0
2020-Aug-08 19:31 298 1 gusting 6 30.0
2020-Aug-08 19:16 070 0 gusting 8 30.0
2020-Aug-08 19:01 156 2 gusting 9 30.0
2020-Aug-08 18:46 288 1 gusting 9 30.6
2020-Aug-08 18:31 108 3 gusting 7 30.6
2020-Aug-08 18:16 265 1 gusting 9 30.0
2020-Aug-08 18:01 335 3 gusting 6 30.0
2020-Aug-08 17:46 091 2 gusting 6 30.0
2020-Aug-08 17:31 242 0 gusting 3 29.4
2020-Aug-08 17:16 243 28.9
2020-Aug-08 17:01 141 1 gusting 6 28.9
2020-Aug-08 16:47 332 29.4
2020-Aug-08 16:31 183 0 gusting 6 29.4
2020-Aug-08 16:15 310 0 gusting 6 30.0
2020-Aug-08 16:00 104 0 gusting 6 28.9
2020-Aug-08 15:45 035 0 gusting 3 28.3
2020-Aug-08 15:30 280 0 gusting 3 28.3
2020-Aug-08 15:15 024 1 gusting 5 28.3
2020-Aug-08 15:00 309 0 gusting 2 27.8
2020-Aug-08 14:46 299 1 gusting 4 27.2
2020-Aug-08 14:30 278 1 gusting 3 27.2
2020-Aug-08 14:15 157 26.1
2020-Aug-08 14:00 101 25.6
2020-Aug-08 13:45 101 0 gusting 3 25.6
2020-Aug-08 13:31 306 0 gusting 2 25.0
2020-Aug-08 13:16 166 0 gusting 4 24.4
2020-Aug-08 13:01 168 23.3
2020-Aug-08 12:46 314 0 gusting 2 22.8
2020-Aug-08 12:31 145 22.8
2020-Aug-08 12:16 207 22.8
2020-Aug-08 12:00 129 22.8
2020-Aug-08 11:46 201 22.2
2020-Aug-08 11:30 201 20.6
2020-Aug-08 11:15 201 19.4
2020-Aug-08 11:01 201 18.3
2020-Aug-08 10:45 204 17.8
2020-Aug-08 10:31 204 17.8
2020-Aug-08 10:15 183 17.8
2020-Aug-08 10:00 183 17.8
2020-Aug-08 09:45 183 17.8
2020-Aug-08 09:30 183 18.3
2020-Aug-08 09:15 183 18.3
2020-Aug-08 09:00 183 18.3
2020-Aug-08 08:45 183 18.3
2020-Aug-08 08:30 183 18.9
2020-Aug-08 08:15 183 18.9
2020-Aug-08 08:00 183 18.9